Wetterdaten: Freitag, 28.08.2015
Datum Zeit Temp. A. Feuchte A. Luftdruck Regen Wind Richtung Richtung Sonnenschein ET UV Solar Taupunkt Windchill Windben Empfang
28.08.2015 00:00 16,7 C 79 % 1013,7 hPa 0,0 l/m 0,0 km/h (0 Bft) NO 46 0 min 0,000 mm 0,0 UV-I 0 W/m 13,0 C 16,7 C 0,0 km/h (0 Bft) 0,00 %
28.08.2015 00:05 16,6 C 80 % 1013,7 hPa 0,0 l/m 0,0 km/h (0 Bft) NO 47 0 min 0,000 mm 0,0 UV-I 0 W/m 13,1 C 16,6 C 0,0 km/h (0 Bft) 0,00 %
28.08.2015 00:10 16,6 C 80 % 1013,8 hPa 0,0 l/m 0,0 km/h (0 Bft) NO 43 0 min 0,000 mm 0,0 UV-I 0 W/m 13,1 C 16,6 C 0,0 km/h (0 Bft) 0,00 %
28.08.2015 00:15 16,5 C 80 % 1013,7 hPa 0,0 l/m 0,0 km/h (0 Bft) NO 46 0 min 0,000 mm 0,0 UV-I 0 W/m 13,0 C 16,5 C 0,0 km/h (0 Bft) 0,00 %
28.08.2015 00:20 16,4 C 80 % 1013,7 hPa 0,0 l/m 0,0 km/h (0 Bft) NO 47 0 min 0,000 mm 0,0 UV-I 0 W/m 12,9 C 16,4 C 0,0 km/h (0 Bft) 0,00 %
28.08.2015 00:25 16,3 C 80 % 1013,6 hPa 0,0 l/m 0,0 km/h (0 Bft) NO 47 0 min 0,000 mm 0,0 UV-I 0 W/m 12,8 C 16,3 C 0,0 km/h (0 Bft) 0,00 %
28.08.2015 00:30 16,2 C 81 % 1013,8 hPa 0,0 l/m 0,0 km/h (0 Bft) NO 39 0 min 0,000 mm 0,0 UV-I 0 W/m 12,9 C 16,2 C 0,0 km/h (0 Bft) 0,00 %
28.08.2015 00:35 16,1 C 80 % 1013,7 hPa 0,0 l/m 0,0 km/h (0 Bft) NO 49 0 min 0,000 mm 0,0 UV-I 0 W/m 12,6 C 16,1 C 0,0 km/h (0 Bft) 0,00 %
28.08.2015 00:40 15,9 C 81 % 1013,7 hPa 0,0 l/m 0,0 km/h (0 Bft) NO 45 0 min 0,000 mm 0,0 UV-I 0 W/m 12,6 C 15,9 C 0,0 km/h (0 Bft) 0,00 %
28.08.2015 00:45 15,7 C 83 % 1013,8 hPa 0,0 l/m 0,0 km/h (0 Bft) NO 44 0 min 0,000 mm 0,0 UV-I 0 W/m 12,8 C 15,7 C 0,0 km/h (0 Bft) 0,00 %
28.08.2015 00:50 15,6 C 83 % 1013,4 hPa 0,0 l/m 0,0 km/h (0 Bft) NO 46 0 min 0,000 mm 0,0 UV-I 0 W/m 12,7 C 15,6 C 0,0 km/h (0 Bft) 0,00 %
28.08.2015 00:55 15,5 C 84 % 1013,6 hPa 0,0 l/m 0,0 km/h (0 Bft) NO 40 0 min 0,000 mm 0,0 UV-I 0 W/m 12,8 C 15,5 C 0,0 km/h (0 Bft) 0,00 %
28.08.2015 01:00 15,4 C 85 % 1013,6 hPa 0,0 l/m 0,0 km/h (0 Bft) NO 48 0 min 0,000 mm 0,0 UV-I 0 W/m 12,9 C 15,4 C 0,0 km/h (0 Bft) 0,00 %
28.08.2015 01:05 15,3 C 84 % 1013,6 hPa 0,0 l/m 0,0 km/h (0 Bft) O-NO 62 0 min 0,000 mm 0,0 UV-I 0 W/m 12,6 C 15,3 C 0,0 km/h (0 Bft) 0,00 %
28.08.2015 01:10 15,2 C 85 % 1013,6 hPa 0,0 l/m 0,0 km/h (0 Bft) NO 43 0 min 0,000 mm 0,0 UV-I 0 W/m 12,7 C 15,2 C 0,0 km/h (0 Bft) 0,00 %
28.08.2015 01:15 15,2 C 85 % 1013,8 hPa 0,0 l/m 0,0 km/h (0 Bft) NO 43 0 min 0,000 mm 0,0 UV-I 0 W/m 12,7 C 15,2 C 0,0 km/h (0 Bft) 0,00 %
28.08.2015 01:20 15,1 C 86 % 1013,8 hPa 0,0 l/m 0,0 km/h (0 Bft) NO 44 0 min 0,000 mm 0,0 UV-I 0 W/m 12,8 C 15,1 C 0,0 km/h (0 Bft) 0,00 %
28.08.2015 01:25 15,0 C 86 % 1013,8 hPa 0,0 l/m 0,0 km/h (0 Bft) NO 50 0 min 0,000 mm 0,0 UV-I 0 W/m 12,7 C 15,0 C 0,0 km/h (0 Bft) 0,00 %
28.08.2015 01:30 14,8 C 88 % 1014,0 hPa 0,0 l/m 0,0 km/h (0 Bft) N-NW 340 0 min 0,000 mm 0,0 UV-I 0 W/m 12,8 C 14,8 C 0,0 km/h (0 Bft) 0,00 %
28.08.2015 01:35 14,8 C 88 % 1014,0 hPa 0,0 l/m 0,0 km/h (0 Bft) NO 49 0 min 0,000 mm 0,0 UV-I 0 W/m 12,8 C 14,8 C 0,0 km/h (0 Bft) 0,00 %
28.08.2015 01:40 14,8 C 87 % 1013,7 hPa 0,0 l/m 0,0 km/h (0 Bft) O-NO 62 0 min 0,000 mm 0,0 UV-I 0 W/m 12,7 C 14,8 C 0,0 km/h (0 Bft) 0,00 %
28.08.2015 01:46 14,8 C 89 % 1013,7 hPa 0,0 l/m 0,0 km/h (0 Bft) NO 45 0 min 0,000 mm 0,0 UV-I 0 W/m 13,0 C 14,8 C 0,0 km/h (0 Bft) 0,00 %
28.08.2015 01:51 14,7 C 89 % 1013,7 hPa 0,0 l/m 0,0 km/h (0 Bft) NO 46 0 min 0,000 mm 0,0 UV-I 0 W/m 12,9 C 14,7 C 0,0 km/h (0 Bft) 0,00 %
28.08.2015 01:56 14,8 C 90 % 1013,6 hPa 0,0 l/m 0,0 km/h (0 Bft) N-NO 23 0 min 0,000 mm 0,0 UV-I 0 W/m 13,2 C 14,8 C 0,0 km/h (0 Bft) 0,00 %
28.08.2015 02:01 14,9 C 89 % 1013,7 hPa 0,0 l/m 0,0 km/h (0 Bft) NO 50 0 min 0,000 mm 0,0 UV-I 0 W/m 13,1 C 14,9 C 0,0 km/h (0 Bft) 0,00 %
28.08.2015 02:06 14,9 C 90 % 1013,5 hPa 0,0 l/m 0,0 km/h (0 Bft) N-NO 28 0 min 0,000 mm 0,0 UV-I 0 W/m 13,3 C 14,9 C 0,0 km/h (0 Bft) 0,00 %
28.08.2015 02:11 14,9 C 89 % 1013,6 hPa 0,0 l/m 0,0 km/h (0 Bft) NO 47 0 min 0,000 mm 0,0 UV-I 0 W/m 13,1 C 14,9 C 0,0 km/h (0 Bft) 0,00 %
28.08.2015 02:16 14,8 C 88 % 1013,7 hPa 0,0 l/m 0,0 km/h (0 Bft) N 1 0 min 0,000 mm 0,0 UV-I 0 W/m 12,8 C 14,8 C 0,0 km/h (0 Bft) 0,00 %
28.08.2015 02:21 14,7 C 88 % 1013,9 hPa 0,0 l/m 0,0 km/h (0 Bft) NO 54 0 min 0,000 mm 0,0 UV-I 0 W/m 12,7 C 14,7 C 0,0 km/h (0 Bft) 0,00 %
28.08.2015 02:26 14,6 C 88 % 1013,9 hPa 0,0 l/m 0,0 km/h (0 Bft) NO 47 0 min 0,000 mm 0,0 UV-I 0 W/m 12,6 C 14,6 C 0,0 km/h (0 Bft) 0,00 %
28.08.2015 02:31 14,5 C 89 % 1013,7 hPa 0,0 l/m 0,0 km/h (0 Bft) NO 50 0 min 0,000 mm 0,0 UV-I 0 W/m 12,7 C 14,5 C 0,0 km/h (0 Bft) 0,00 %
28.08.2015 02:36 14,4 C 90 % 1013,8 hPa 0,0 l/m 0,0 km/h (0 Bft) O-NO 66 0 min 0,000 mm 0,0 UV-I 0 W/m 12,8 C 14,4 C 0,0 km/h (0 Bft) 0,00 %
28.08.2015 02:41 14,4 C 90 % 1013,8 hPa 0,0 l/m 0,0 km/h (0 Bft) NO 48 0 min 0,000 mm 0,0 UV-I 0 W/m 12,8 C 14,4 C 0,0 km/h (0 Bft) 0,00 %
28.08.2015 02:46 14,4 C 90 % 1013,7 hPa 0,0 l/m 0,0 km/h (0 Bft) N-NO 25 0 min 0,000 mm 0,0 UV-I 0 W/m 12,8 C 14,4 C 0,0 km/h (0 Bft) 0,00 %
28.08.2015 02:51 14,3 C 89 % 1014,0 hPa 0,0 l/m 0,0 km/h (0 Bft) NO 50 0 min 0,000 mm 0,0 UV-I 0 W/m 12,5 C 14,3 C 0,0 km/h (0 Bft) 0,00 %
28.08.2015 02:56 14,2 C 89 % 1014,0 hPa 0,0 l/m 0,0 km/h (0 Bft) O-NO 57 0 min 0,000 mm 0,0 UV-I 0 W/m 12,4 C 14,2 C 0,0 km/h (0 Bft) 0,00 %
28.08.2015 03:01 14,1 C 90 % 1013,9 hPa 0,0 l/m 0,0 km/h (0 Bft) NO 54 0 min 0,000 mm 0,0 UV-I 0 W/m 12,5 C 14,1 C 0,0 km/h (0 Bft) 0,00 %
28.08.2015 03:06 14,0 C 91 % 1013,8 hPa 0,0 l/m 0,0 km/h (0 Bft) O-NO 61 0 min 0,000 mm 0,0 UV-I 0 W/m 12,6 C 14,0 C 0,0 km/h (0 Bft) 0,00 %
28.08.2015 03:11 14,0 C 91 % 1014,0 hPa 0,0 l/m 0,0 km/h (0 Bft) O-NO 61 0 min 0,000 mm 0,0 UV-I 0 W/m 12,6 C 14,0 C 0,0 km/h (0 Bft) 0,00 %
28.08.2015 03:16 14,1 C 92 % 1014,1 hPa 0,0 l/m 0,0 km/h (0 Bft) O-NO 61 0 min 0,000 mm 0,0 UV-I 0 W/m 12,8 C 14,1 C 0,0 km/h (0 Bft) 0,00 %
28.08.2015 03:21 14,1 C 92 % 1014,1 hPa 0,0 l/m 0,0 km/h (0 Bft) O-NO 60 0 min 0,000 mm 0,0 UV-I 0 W/m 12,8 C 14,1 C 0,0 km/h (0 Bft) 0,00 %
28.08.2015 03:26 14,1 C 91 % 1014,1 hPa 0,0 l/m 0,0 km/h (0 Bft) N-NO 24 0 min 0,000 mm 0,0 UV-I 0 W/m 12,7 C 14,1 C 0,0 km/h (0 Bft) 0,00 %
28.08.2015 03:31 14,1 C 92 % 1014,4 hPa 0,0 l/m 0,0 km/h (0 Bft) NO 43 0 min 0,000 mm 0,0 UV-I 0 W/m 12,8 C 14,1 C 0,0 km/h (0 Bft) 0,00 %
28.08.2015 03:36 14,0 C 92 % 1014,3 hPa 0,0 l/m 0,0 km/h (0 Bft) NO 43 0 min 0,000 mm 0,0 UV-I 0 W/m 12,7 C 14,0 C 0,0 km/h (0 Bft) 0,00 %
28.08.2015 03:41 13,9 C 92 % 1014,1 hPa 0,0 l/m 0,0 km/h (0 Bft) NO 43 0 min 0,000 mm 0,0 UV-I 0 W/m 12,6 C 13,9 C 0,0 km/h (0 Bft) 0,00 %
28.08.2015 03:46 13,8 C 92 % 1014,1 hPa 0,0 l/m 0,0 km/h (0 Bft) N 355 0 min 0,000 mm 0,0 UV-I 0 W/m 12,5 C 13,8 C 0,0 km/h (0 Bft) 0,00 %
28.08.2015 03:51 13,6 C 92 % 1014,4 hPa 0,0 l/m 0,0 km/h (0 Bft) NO 46 0 min 0,000 mm 0,0 UV-I 0 W/m 12,3 C 13,6 C 0,0 km/h (0 Bft) 0,00 %
28.08.2015 03:56 13,4 C 92 % 1014,4 hPa 0,0 l/m 0,0 km/h (0 Bft) NO 50 0 min 0,000 mm 0,0 UV-I 0 W/m 12,1 C 13,4 C 0,0 km/h (0 Bft) 0,00 %
28.08.2015 04:01 13,3 C 92 % 1014,5 hPa 0,0 l/m 0,0 km/h (0 Bft) NO 46 0 min 0,000 mm 0,0 UV-I 0 W/m 12,0 C 13,3 C 0,0 km/h (0 Bft) 0,00 %
28.08.2015 04:06 13,2 C 93 % 1014,5 hPa 0,0 l/m 0,0 km/h (0 Bft) O-NO 61 0 min 0,000 mm 0,0 UV-I 0 W/m 12,1 C 13,2 C 0,0 km/h (0 Bft) 0,00 %
28.08.2015 04:11 13,1 C 93 % 1014,5 hPa 0,0 l/m 0,0 km/h (0 Bft) O-NO 61 0 min 0,000 mm 0,0 UV-I 0 W/m 12,0 C 13,1 C 0,0 km/h (0 Bft) 0,00 %
28.08.2015 04:16 13,0 C 93 % 1014,4 hPa 0,0 l/m 0,0 km/h (0 Bft) O-NO 68 0 min 0,000 mm 0,0 UV-I 0 W/m 11,9 C 13,0 C 0,0 km/h (0 Bft) 0,00 %
28.08.2015 04:21 13,0 C 94 % 1014,6 hPa 0,0 l/m 0,0 km/h (0 Bft) NO 43 0 min 0,000 mm 0,0 UV-I 0 W/m 12,1 C 13,0 C 0,0 km/h (0 Bft) 0,00 %
28.08.2015 04:26 13,0 C 94 % 1014,8 hPa 0,0 l/m 0,0 km/h (0 Bft) NO 52 0 min 0,000 mm 0,0 UV-I 0 W/m 12,1 C 13,0 C 0,0 km/h (0 Bft) 0,00 %
28.08.2015 04:31 13,1 C 94 % 1014,7 hPa 0,0 l/m 0,0 km/h (0 Bft) NO 53 0 min 0,000 mm 0,0 UV-I 0 W/m 12,2 C 13,1 C 0,0 km/h (0 Bft) 0,00 %
28.08.2015 04:36 13,1 C 95 % 1014,7 hPa 0,0 l/m 0,0 km/h (0 Bft) NO 53 0 min 0,000 mm 0,0 UV-I 0 W/m 12,3 C 13,1 C 0,0 km/h (0 Bft) 0,00 %
28.08.2015 04:41 13,1 C 95 % 1014,9 hPa 0,0 l/m 0,0 km/h (0 Bft) NO 39 0 min 0,000 mm 0,0 UV-I 0 W/m 12,3 C 13,1 C 0,0 km/h (0 Bft) 0,00 %
28.08.2015 04:46 13,1 C 95 % 1014,9 hPa 0,0 l/m 0,0 km/h (0 Bft) O-NO 57 0 min 0,000 mm 0,0 UV-I 0 W/m 12,3 C 13,1 C 0,0 km/h (0 Bft) 0,00 %
28.08.2015 04:51 13,0 C 95 % 1015,0 hPa 0,0 l/m 0,0 km/h (0 Bft) O-NO 57 0 min 0,000 mm 0,0 UV-I 0 W/m 12,2 C 13,0 C 0,0 km/h (0 Bft) 0,00 %
28.08.2015 04:56 12,9 C 95 % 1015,1 hPa 0,0 l/m 0,0 km/h (0 Bft) O-NO 57 0 min 0,000 mm 0,0 UV-I 0 W/m 12,1 C 12,9 C 0,0 km/h (0 Bft) 0,00 %
28.08.2015 05:01 12,9 C 95 % 1015,0 hPa 0,0 l/m 0,0 km/h (0 Bft) O-NO 57 0 min 0,000 mm 0,0 UV-I 0 W/m 12,1 C 12,9 C 0,0 km/h (0 Bft) 0,00 %
28.08.2015 05:06 12,8 C 96 % 1014,9 hPa 0,0 l/m 0,0 km/h (0 Bft) NO 47 0 min 0,000 mm 0,0 UV-I 0 W/m 12,2 C 12,8 C 0,0 km/h (0 Bft) 0,00 %
28.08.2015 05:11 12,8 C 96 % 1015,1 hPa 0,0 l/m 0,0 km/h (0 Bft) N 357 0 min 0,000 mm 0,0 UV-I 0 W/m 12,2 C 12,8 C 0,0 km/h (0 Bft) 0,00 %
28.08.2015 05:16 12,7 C 96 % 1015,3 hPa 0,0 l/m 0,0 km/h (0 Bft) NO 35 0 min 0,000 mm 0,0 UV-I 0 W/m 12,1 C 12,7 C 0,0 km/h (0 Bft) 0,00 %
28.08.2015 05:21 12,6 C 95 % 1015,3 hPa 0,0 l/m 0,0 km/h (0 Bft) NO 39 0 min 0,000 mm 0,0 UV-I 0 W/m 11,8 C 12,6 C 0,0 km/h (0 Bft) 0,00 %
28.08.2015 05:26 12,6 C 95 % 1015,3 hPa 0,0 l/m 0,0 km/h (0 Bft) NO 50 0 min 0,000 mm 0,0 UV-I 0 W/m 11,8 C 12,6 C 0,0 km/h (0 Bft) 0,00 %
28.08.2015 05:31 12,5 C 95 % 1015,5 hPa 0,0 l/m 0,0 km/h (0 Bft) NO 55 0 min 0,000 mm 0,0 UV-I 0 W/m 11,7 C 12,5 C 0,0 km/h (0 Bft) 0,00 %
28.08.2015 05:36 12,5 C 95 % 1015,5 hPa 0,0 l/m 0,0 km/h (0 Bft) NO 55 0 min 0,000 mm 0,0 UV-I 0 W/m 11,7 C 12,5 C 0,0 km/h (0 Bft) 0,00 %
28.08.2015 05:41 12,4 C 95 % 1015,4 hPa 0,0 l/m 0,0 km/h (0 Bft) NO 55 0 min 0,000 mm 0,0 UV-I 0 W/m 11,6 C 12,4 C 0,0 km/h (0 Bft) 0,00 %
28.08.2015 05:46 12,4 C 95 % 1015,5 hPa 0,0 l/m 0,0 km/h (0 Bft) NO 55 0 min 0,000 mm 0,0 UV-I 0 W/m 11,6 C 12,4 C 0,0 km/h (0 Bft) 0,00 %
28.08.2015 05:51 12,3 C 95 % 1015,5 hPa 0,0 l/m 0,0 km/h (0 Bft) NO 54 0 min 0,000 mm 0,0 UV-I 0 W/m 11,5 C 12,3 C 0,0 km/h (0 Bft) 0,00 %
28.08.2015 05:56 12,3 C 96 % 1015,5 hPa 0,0 l/m 0,0 km/h (0 Bft) NO 42 0 min 0,000 mm 0,0 UV-I 0 W/m 11,7 C 12,3 C 0,0 km/h (0 Bft) 0,00 %
28.08.2015 06:01 12,2 C 96 % 1015,6 hPa 0,0 l/m 0,0 km/h (0 Bft) NO 42 0 min 0,000 mm 0,0 UV-I 0 W/m 11,6 C 12,2 C 0,0 km/h (0 Bft) 0,00 %
28.08.2015 06:06 12,2 C 96 % 1015,7 hPa 0,0 l/m 0,0 km/h (0 Bft) NO 44 0 min 0,000 mm 0,0 UV-I 0 W/m 11,6 C 12,2 C 0,0 km/h (0 Bft) 0,00 %
28.08.2015 06:11 12,2 C 96 % 1015,8 hPa 0,0 l/m 0,0 km/h (0 Bft) NO 48 0 min 0,000 mm 0,0 UV-I 0 W/m 11,6 C 12,2 C 0,0 km/h (0 Bft) 0,00 %
28.08.2015 06:16 12,1 C 96 % 1016,0 hPa 0,0 l/m 0,0 km/h (0 Bft) N-NO 26 0 min 0,000 mm 0,0 UV-I 0 W/m 11,5 C 12,1 C 0,0 km/h (0 Bft) 0,00 %
28.08.2015 06:21 12,0 C 96 % 1015,9 hPa 0,0 l/m 0,0 km/h (0 Bft) NO 51 0 min 0,000 mm 0,0 UV-I 4 W/m 11,4 C 12,0 C 0,0 km/h (0 Bft) 0,00 %
28.08.2015 06:26 12,1 C 96 % 1015,9 hPa 0,0 l/m 0,0 km/h (0 Bft) NO 51 5 min 0,000 mm 0,0 UV-I 12 W/m 11,5 C 12,1 C 0,0 km/h (0 Bft) 0,00 %
28.08.2015 06:31 12,1 C 96 % 1016,0 hPa 0,0 l/m 0,0 km/h (0 Bft) NO 38 5 min 0,000 mm 0,0 UV-I 28 W/m 11,5 C 12,1 C 0,0 km/h (0 Bft) 0,00 %
28.08.2015 06:36 12,2 C 96 % 1016,2 hPa 0,0 l/m 0,0 km/h (0 Bft) N 6 5 min 0,000 mm 0,0 UV-I 47 W/m 11,6 C 12,2 C 0,0 km/h (0 Bft) 0,00 %
28.08.2015 06:41 12,4 C 96 % 1016,4 hPa 0,0 l/m 0,0 km/h (0 Bft) O-NO 58 5 min 0,000 mm 0,0 UV-I 62 W/m 11,8 C 12,4 C 0,0 km/h (0 Bft) 0,00 %
28.08.2015 06:46 12,8 C 95 % 1016,1 hPa 0,0 l/m 0,0 km/h (0 Bft) O-NO 61 5 min 0,000 mm 0,0 UV-I 79 W/m 12,0 C 12,8 C 0,0 km/h (0 Bft) 0,00 %
28.08.2015 06:51 13,4 C 95 % 1016,4 hPa 0,0 l/m 0,0 km/h (0 Bft) O-NO 57 5 min 0,000 mm 0,0 UV-I 67 W/m 12,6 C 13,4 C 0,0 km/h (0 Bft) 0,00 %
28.08.2015 06:56 13,8 C 92 % 1016,2 hPa 0,0 l/m 0,0 km/h (0 Bft) NO 47 5 min 0,000 mm 0,0 UV-I 80 W/m 12,5 C 13,8 C 0,0 km/h (0 Bft) 0,00 %
28.08.2015 07:01 14,1 C 91 % 1016,4 hPa 0,0 l/m 0,0 km/h (0 Bft) NO 47 5 min 0,000 mm 0,0 UV-I 103 W/m 12,7 C 14,1 C 0,0 km/h (0 Bft) 0,00 %
28.08.2015 07:06 14,4 C 90 % 1016,6 hPa 0,0 l/m 0,0 km/h (0 Bft) NO 47 5 min 0,000 mm 0,0 UV-I 116 W/m 12,8 C 14,4 C 0,0 km/h (0 Bft) 0,00 %
28.08.2015 07:11 14,9 C 85 % 1016,7 hPa 0,0 l/m 0,0 km/h (0 Bft) NO 42 5 min 0,000 mm 0,0 UV-I 118 W/m 12,4 C 14,9 C 0,0 km/h (0 Bft) 0,00 %
28.08.2015 07:16 15,4 C 81 % 1016,6 hPa 0,0 l/m 0,0 km/h (0 Bft) O-NO 58 5 min 0,000 mm 0,0 UV-I 121 W/m 12,2 C 15,4 C 0,0 km/h (0 Bft) 0,00 %
28.08.2015 07:21 15,9 C 78 % 1016,9 hPa 0,0 l/m 0,0 km/h (0 Bft) NW 313 5 min 0,000 mm 0,0 UV-I 103 W/m 12,1 C 15,9 C 0,0 km/h (0 Bft) 0,00 %
28.08.2015 07:26 16,1 C 78 % 1017,2 hPa 0,0 l/m 0,0 km/h (0 Bft) NO 44 0 min 0,000 mm 0,0 UV-I 83 W/m 12,3 C 16,1 C 0,0 km/h (0 Bft) 0,00 %
28.08.2015 07:31 16,0 C 78 % 1017,4 hPa 0,0 l/m 0,0 km/h (0 Bft) N-NW 332 0 min 0,000 mm 0,0 UV-I 98 W/m 12,2 C 16,0 C 0,0 km/h (0 Bft) 0,00 %
28.08.2015 07:36 16,0 C 78 % 1017,5 hPa 0,0 l/m 0,0 km/h (0 Bft) N-NO 31 0 min 0,000 mm 1,0 UV-I 116 W/m 12,2 C 16,0 C 0,0 km/h (0 Bft) 0,00 %
28.08.2015 07:41 16,3 C 77 % 1017,5 hPa 0,0 l/m 0,0 km/h (0 Bft) O-NO 63 0 min 0,000 mm 1,0 UV-I 116 W/m 12,3 C 16,3 C 0,0 km/h (0 Bft) 0,00 %
28.08.2015 07:46 16,9 C 75 % 1017,5 hPa 0,0 l/m 0,0 km/h (0 Bft) NO 48 0 min 0,000 mm 1,0 UV-I 121 W/m 12,4 C 16,9 C 0,0 km/h (0 Bft) 0,00 %
28.08.2015 07:51 17,7 C 72 % 1017,6 hPa 0,0 l/m 0,0 km/h (0 Bft) N-NO 24 0 min 0,000 mm 1,0 UV-I 104 W/m 12,6 C 17,7 C 0,0 km/h (0 Bft) 0,00 %
28.08.2015 07:56 18,3 C 71 % 1017,4 hPa 0,0 l/m 0,0 km/h (0 Bft) NO 34 0 min 0,000 mm 1,0 UV-I 125 W/m 12,9 C 18,3 C 0,0 km/h (0 Bft) 0,00 %
28.08.2015 08:01 18,5 C 71 % 1017,7 hPa 0,0 l/m 1,8 km/h (1 Bft) N 356 0 min 0,000 mm 1,0 UV-I 121 W/m 13,1 C 18,5 C 4,0 km/h (1 Bft) 0,00 %
28.08.2015 08:06 18,5 C 72 % 1017,9 hPa 0,0 l/m 0,0 km/h (0 Bft) S-SW 192 0 min 0,000 mm 1,0 UV-I 137 W/m 13,4 C 18,5 C 0,0 km/h (0 Bft) 0,00 %
28.08.2015 08:11 18,5 C 71 % 1017,9 hPa 0,0 l/m 0,4 km/h (0 Bft) N 356 0 min 0,000 mm 1,0 UV-I 147 W/m 13,1 C 18,5 C 4,0 km/h (1 Bft) 0,00 %
28.08.2015 08:16 18,8 C 70 % 1017,9 hPa 0,0 l/m 0,0 km/h (0 Bft) NO 46 0 min 0,000 mm 1,0 UV-I 156 W/m 13,2 C 18,8 C 0,0 km/h (0 Bft) 0,00 %
28.08.2015 08:21 19,1 C 69 % 1018,1 hPa 0,0 l/m 0,0 km/h (0 Bft) N-NO 22 0 min 0,000 mm 1,0 UV-I 166 W/m 13,3 C 19,1 C 0,0 km/h (0 Bft) 0,00 %
28.08.2015 08:26 19,3 C 68 % 1018,1 hPa 0,0 l/m 0,0 km/h (0 Bft) O-NO 68 0 min 0,000 mm 1,0 UV-I 162 W/m 13,2 C 19,3 C 0,0 km/h (0 Bft) 0,00 %
28.08.2015 08:31 19,6 C 65 % 1018,2 hPa 0,0 l/m 0,0 km/h (0 Bft) O 96 0 min 0,000 mm 1,0 UV-I 166 W/m 12,8 C 19,6 C 0,0 km/h (0 Bft) 0,00 %
28.08.2015 08:36 19,9 C 64 % 1018,4 hPa 0,0 l/m 0,0 km/h (0 Bft) N-NW 341 0 min 0,000 mm 1,0 UV-I 182 W/m 12,9 C 19,9 C 0,0 km/h (0 Bft) 0,00 %
28.08.2015 08:41 20,2 C 64 % 1018,4 hPa 0,0 l/m 0,4 km/h (0 Bft) N-NW 330 0 min 0,000 mm 1,0 UV-I 184 W/m 13,2 C 20,2 C 4,0 km/h (1 Bft) 0,00 %
28.08.2015 08:46 20,5 C 63 % 1018,6 hPa 0,0 l/m 0,0 km/h (0 Bft) W-SW 256 0 min 0,000 mm 1,0 UV-I 208 W/m 13,2 C 20,5 C 0,0 km/h (0 Bft) 0,00 %
28.08.2015 08:51 21,0 C 60 % 1018,6 hPa 0,0 l/m 0,0 km/h (0 Bft) N 353 0 min 0,000 mm 1,0 UV-I 224 W/m 12,9 C 21,0 C 0,0 km/h (0 Bft) 0,00 %
28.08.2015 08:56 21,3 C 61 % 1018,7 hPa 0,0 l/m 0,0 km/h (0 Bft) N-NO 17 0 min 0,000 mm 1,0 UV-I 234 W/m 13,5 C 21,3 C 0,0 km/h (0 Bft) 0,00 %
28.08.2015 09:01 21,7 C 58 % 1018,6 hPa 0,0 l/m 0,0 km/h (0 Bft) W-NW 292 5 min 0,000 mm 1,0 UV-I 249 W/m 13,1 C 21,7 C 0,0 km/h (0 Bft) 0,00 %
28.08.2015 09:06 22,3 C 57 % 1018,7 hPa 0,0 l/m 0,0 km/h (0 Bft) W-NW 286 5 min 0,000 mm 1,0 UV-I 262 W/m 13,4 C 22,3 C 0,0 km/h (0 Bft) 0,00 %
28.08.2015 09:11 22,7 C 57 % 1018,7 hPa 0,0 l/m 0,0 km/h (0 Bft) NO 53 5 min 0,000 mm 1,0 UV-I 274 W/m 13,7 C 22,7 C 0,0 km/h (0 Bft) 0,00 %
28.08.2015 09:16 23,0 C 54 % 1018,7 hPa 0,0 l/m 2,9 km/h (1 Bft) NW 320 5 min 0,000 mm 1,0 UV-I 289 W/m 13,2 C 23,0 C 7,9 km/h (2 Bft) 0,00 %
28.08.2015 09:21 23,4 C 54 % 1018,9 hPa 0,0 l/m 0,0 km/h (0 Bft) NO 35 5 min 0,000 mm 1,0 UV-I 298 W/m 13,6 C 23,4 C 0,0 km/h (0 Bft) 0,00 %
28.08.2015 09:26 23,7 C 51 % 1018,7 hPa 0,0 l/m 0,0 km/h (0 Bft) NO 36 5 min 0,000 mm 1,0 UV-I 320 W/m 13,0 C 23,7 C 0,0 km/h (0 Bft) 0,00 %
28.08.2015 09:31 24,3 C 48 % 1018,8 hPa 0,0 l/m 1,8 km/h (1 Bft) N 350 5 min 0,000 mm 2,0 UV-I 337 W/m 12,6 C 24,3 C 4,0 km/h (1 Bft) 0,00 %
28.08.2015 09:36 24,9 C 47 % 1019,0 hPa 0,0 l/m 1,4 km/h (1 Bft) N 355 5 min 0,000 mm 2,0 UV-I 356 W/m 12,8 C 24,9 C 4,0 km/h (1 Bft) 0,00 %
28.08.2015 09:41 25,3 C 46 % 1019,0 hPa 0,0 l/m 6,5 km/h (2 Bft) W-SW 252 0 min 0,000 mm 2,0 UV-I 248 W/m 12,8 C 25,3 C 11,9 km/h (2 Bft) 0,00 %
28.08.2015 09:46 25,6 C 45 % 1018,9 hPa 0,0 l/m 7,2 km/h (2 Bft) W-SW 238 5 min 0,000 mm 2,0 UV-I 336 W/m 12,8 C 25,4 C 11,9 km/h (2 Bft) 0,00 %
28.08.2015 09:51 25,5 C 46 % 1019,0 hPa 0,0 l/m 1,8 km/h (1 Bft) W-NW 287 0 min 0,000 mm 1,0 UV-I 182 W/m 13,0 C 25,5 C 4,0 km/h (1 Bft) 0,00 %
28.08.2015 09:56 25,2 C 45 % 1018,8 hPa 0,0 l/m 0,0 km/h (0 Bft) O-NO 66 0 min 0,000 mm 1,0 UV-I 246 W/m 12,4 C 25,2 C 0,0 km/h (0 Bft) 0,00 %
28.08.2015 10:01 25,4 C 43 % 1019,0 hPa 0,0 l/m 3,2 km/h (1 Bft) O 96 5 min 0,000 mm 2,0 UV-I 338 W/m 11,9 C 25,4 C 7,9 km/h (2 Bft) 0,00 %
28.08.2015 10:06 25,9 C 42 % 1019,3 hPa 0,0 l/m 3,2 km/h (1 Bft) NW 309 5 min 0,000 mm 2,0 UV-I 397 W/m 12,0 C 25,9 C 7,9 km/h (2 Bft) 0,00 %
28.08.2015 10:11 26,2 C 41 % 1019,2 hPa 0,0 l/m 0,0 km/h (0 Bft) S 171 5 min 0,000 mm 2,0 UV-I 442 W/m 11,9 C 26,2 C 0,0 km/h (0 Bft) 0,00 %
28.08.2015 10:16 26,4 C 40 % 1019,2 hPa 0,0 l/m 5,4 km/h (1 Bft) NW 322 5 min 0,000 mm 2,0 UV-I 438 W/m 11,7 C 26,4 C 7,9 km/h (2 Bft) 0,00 %
28.08.2015 10:21 26,9 C 41 % 1019,3 hPa 0,0 l/m 4,3 km/h (1 Bft) NW 318 5 min 0,000 mm 2,0 UV-I 472 W/m 12,5 C 26,9 C 7,9 km/h (2 Bft) 0,00 %
28.08.2015 10:26 27,1 C 42 % 1019,2 hPa 0,0 l/m 2,2 km/h (1 Bft) W 265 5 min 0,000 mm 2,0 UV-I 513 W/m 13,1 C 27,1 C 4,0 km/h (1 Bft) 0,00 %
28.08.2015 10:31 27,5 C 38 % 1019,1 hPa 0,0 l/m 1,8 km/h (1 Bft) W-NW 298 5 min 0,000 mm 2,0 UV-I 518 W/m 11,9 C 27,5 C 4,0 km/h (1 Bft) 0,00 %
28.08.2015 10:36 28,1 C 39 % 1019,2 hPa 0,0 l/m 0,0 km/h (0 Bft) NW 312 5 min 0,000 mm 2,0 UV-I 468 W/m 12,8 C 28,1 C 0,0 km/h (0 Bft) 0,00 %
28.08.2015 10:41 28,6 C 37 % 1019,2 hPa 0,0 l/m 1,8 km/h (1 Bft) W-NW 301 5 min 0,000 mm 2,0 UV-I 492 W/m 12,5 C 28,6 C 4,0 km/h (1 Bft) 0,00 %
28.08.2015 10:46 28,9 C 36 % 1019,3 hPa 0,0 l/m 2,9 km/h (1 Bft) NW 324 5 min 0,000 mm 2,0 UV-I 487 W/m 12,3 C 28,9 C 4,0 km/h (1 Bft) 0,00 %
28.08.2015 10:51 28,9 C 37 % 1019,3 hPa 0,0 l/m 0,0 km/h (0 Bft) N-NO 32 5 min 0,000 mm 2,0 UV-I 515 W/m 12,7 C 28,9 C 0,0 km/h (0 Bft) 0,00 %
28.08.2015 10:56 29,0 C 36 % 1019,5 hPa 0,0 l/m 0,0 km/h (0 Bft) NO 48 5 min 0,000 mm 2,0 UV-I 575 W/m 12,4 C 29,0 C 0,0 km/h (0 Bft) 0,00 %
28.08.2015 11:01 29,6 C 35 % 1019,3 hPa 0,0 l/m 0,0 km/h (0 Bft) O-NO 59 5 min 0,000 mm 3,0 UV-I 621 W/m 12,5 C 29,6 C 0,0 km/h (0 Bft) 0,00 %
28.08.2015 11:06 30,1 C 34 % 1019,3 hPa 0,0 l/m 5,8 km/h (2 Bft) W-NW 288 5 min 0,000 mm 3,0 UV-I 623 W/m 12,5 C 30,1 C 7,9 km/h (2 Bft) 0,00 %
28.08.2015 11:11 30,2 C 34 % 1019,5 hPa 0,0 l/m 1,4 km/h (1 Bft) W-SW 256 5 min 0,000 mm 3,0 UV-I 637 W/m 12,6 C 30,2 C 4,0 km/h (1 Bft) 0,00 %
28.08.2015 11:16 30,4 C 32 % 1019,4 hPa 0,0 l/m 1,8 km/h (1 Bft) W 270 5 min 0,000 mm 3,0 UV-I 641 W/m 11,8 C 30,4 C 4,0 km/h (1 Bft) 0,00 %
28.08.2015 11:21 30,5 C 32 % 1019,3 hPa 0,0 l/m 0,7 km/h (0 Bft) N 349 5 min 0,000 mm 3,0 UV-I 628 W/m 11,9 C 30,5 C 4,0 km/h (1 Bft) 0,00 %
28.08.2015 11:26 30,3 C 34 % 1019,5 hPa 0,0 l/m 0,0 km/h (0 Bft) N-NW 335 5 min 0,000 mm 3,0 UV-I 620 W/m 12,7 C 30,3 C 0,0 km/h (0 Bft) 0,00 %
28.08.2015 11:31 30,0 C 34 % 1019,4 hPa 0,0 l/m 2,9 km/h (1 Bft) W 277 5 min 0,000 mm 3,0 UV-I 620 W/m 12,4 C 30,0 C 4,0 km/h (1 Bft) 0,00 %
28.08.2015 11:36 30,0 C 34 % 1019,5 hPa 0,0 l/m 0,4 km/h (0 Bft) N-NO 25 5 min 0,000 mm 3,0 UV-I 641 W/m 12,4 C 30,0 C 4,0 km/h (1 Bft) 0,00 %
28.08.2015 11:41 30,2 C 33 % 1019,5 hPa 0,0 l/m 0,0 km/h (0 Bft) O-NO 63 5 min 0,000 mm 3,0 UV-I 684 W/m 12,1 C 30,2 C 0,0 km/h (0 Bft) 0,00 %
28.08.2015 11:46 30,6 C 32 % 1019,4 hPa 0,0 l/m 0,0 km/h (0 Bft) NO 39 5 min 0,000 mm 3,0 UV-I 706 W/m 12,0 C 30,6 C 0,0 km/h (0 Bft) 0,00 %
28.08.2015 11:51 30,9 C 32 % 1019,4 hPa 0,0 l/m 0,0 km/h (0 Bft) N-NW 348 5 min 0,000 mm 3,0 UV-I 718 W/m 12,3 C 30,9 C 0,0 km/h (0 Bft) 0,00 %
28.08.2015 11:56 31,2 C 30 % 1019,5 hPa 0,0 l/m 4,0 km/h (1 Bft) W 274 5 min 0,000 mm 3,0 UV-I 750 W/m 11,5 C 31,2 C 7,9 km/h (2 Bft) 0,00 %
28.08.2015 12:01 31,1 C 34 % 1019,4 hPa 0,0 l/m 0,0 km/h (0 Bft) N-NW 339 5 min 0,000 mm 3,0 UV-I 737 W/m 13,4 C 31,1 C 0,0 km/h (0 Bft) 0,00 %
28.08.2015 12:06 30,6 C 35 % 1019,5 hPa 0,0 l/m 0,0 km/h (0 Bft) N 352 5 min 0,000 mm 3,0 UV-I 763 W/m 13,4 C 30,6 C 0,0 km/h (0 Bft) 0,00 %
28.08.2015 12:11 30,5 C 33 % 1019,4 hPa 0,0 l/m 0,0 km/h (0 Bft) N-NW 338 5 min 0,000 mm 3,0 UV-I 779 W/m 12,4 C 30,5 C 0,0 km/h (0 Bft) 0,00 %
28.08.2015 12:16 30,8 C 32 % 1019,5 hPa 0,0 l/m 0,4 km/h (0 Bft) W-SW 240 5 min 0,000 mm 3,0 UV-I 794 W/m 12,2 C 30,8 C 4,0 km/h (1 Bft) 0,00 %
28.08.2015 12:21 31,1 C 31 % 1019,2 hPa 0,0 l/m 0,0 km/h (0 Bft) O 96 5 min 0,000 mm 3,0 UV-I 753 W/m 11,9 C 31,1 C 0,0 km/h (0 Bft) 0,00 %
28.08.2015 12:26 31,2 C 31 % 1019,2 hPa 0,0 l/m 0,0 km/h (0 Bft) N-NW 348 5 min 0,000 mm 3,0 UV-I 778 W/m 12,0 C 31,2 C 0,0 km/h (0 Bft) 0,00 %
28.08.2015 12:31 31,1 C 31 % 1019,4 hPa 0,0 l/m 6,5 km/h (2 Bft) W-NW 287 5 min 0,000 mm 3,0 UV-I 784 W/m 11,9 C 31,1 C 11,9 km/h (2 Bft) 0,00 %
28.08.2015 12:36 30,9 C 33 % 1019,3 hPa 0,0 l/m 0,0 km/h (0 Bft) O-NO 61 5 min 0,000 mm 3,0 UV-I 718 W/m 12,7 C 30,9 C 0,0 km/h (0 Bft) 0,00 %
28.08.2015 12:41 30,8 C 32 % 1019,1 hPa 0,0 l/m 0,0 km/h (0 Bft) N-NW 337 5 min 0,000 mm 3,0 UV-I 753 W/m 12,2 C 30,8 C 0,0 km/h (0 Bft) 0,00 %
28.08.2015 12:46 30,8 C 31 % 1019,0 hPa 0,0 l/m 1,4 km/h (1 Bft) NW 305 5 min 0,000 mm 3,0 UV-I 771 W/m 11,7 C 30,8 C 4,0 km/h (1 Bft) 0,00 %
28.08.2015 12:51 31,0 C 31 % 1019,1 hPa 0,0 l/m 0,0 km/h (0 Bft) O-NO 64 5 min 0,000 mm 3,0 UV-I 775 W/m 11,9 C 31,0 C 0,0 km/h (0 Bft) 0,00 %
28.08.2015 12:56 31,1 C 30 % 1019,0 hPa 0,0 l/m 2,9 km/h (1 Bft) NW 319 5 min 0,000 mm 4,0 UV-I 813 W/m 11,5 C 31,1 C 7,9 km/h (2 Bft) 0,00 %
28.08.2015 13:01 31,2 C 30 % 1019,0 hPa 0,0 l/m 0,0 km/h (0 Bft) NO 36 5 min 0,000 mm 3,0 UV-I 813 W/m 11,5 C 31,2 C 0,0 km/h (0 Bft) 0,00 %
28.08.2015 13:06 31,2 C 30 % 1019,3 hPa 0,0 l/m 1,4 km/h (1 Bft) W-NW 282 5 min 0,000 mm 4,0 UV-I 831 W/m 11,5 C 31,2 C 4,0 km/h (1 Bft) 0,00 %
28.08.2015 13:11 31,2 C 30 % 1019,3 hPa 0,0 l/m 1,8 km/h (1 Bft) N 351 5 min 0,000 mm 4,0 UV-I 826 W/m 11,5 C 31,2 C 4,0 km/h (1 Bft) 0,00 %
28.08.2015 13:16 31,0 C 31 % 1019,3 hPa 0,0 l/m 4,3 km/h (1 Bft) W 272 5 min 0,000 mm 4,0 UV-I 838 W/m 11,9 C 31,0 C 7,9 km/h (2 Bft) 0,00 %
28.08.2015 13:21 31,1 C 30 % 1019,4 hPa 0,0 l/m 3,2 km/h (1 Bft) NW 307 5 min 0,000 mm 3,0 UV-I 799 W/m 11,5 C 31,1 C 4,0 km/h (1 Bft) 0,00 %
28.08.2015 13:26 31,2 C 29 % 1019,1 hPa 0,0 l/m 0,4 km/h (0 Bft) O-NO 70 5 min 0,000 mm 3,0 UV-I 842 W/m 11,0 C 31,2 C 4,0 km/h (1 Bft) 0,00 %
28.08.2015 13:31 31,2 C 29 % 1019,1 hPa 0,0 l/m 2,9 km/h (1 Bft) W-NW 286 5 min 0,000 mm 3,0 UV-I 843 W/m 11,0 C 31,2 C 4,0 km/h (1 Bft) 0,00 %
28.08.2015 13:36 31,3 C 30 % 1019,0 hPa 0,0 l/m 0,0 km/h (0 Bft) NO 45 5 min 0,000 mm 3,0 UV-I 852 W/m 11,6 C 31,3 C 0,0 km/h (0 Bft) 0,00 %
28.08.2015 13:41 31,5 C 29 % 1019,1 hPa 0,0 l/m 0,0 km/h (0 Bft) NO 38 5 min 0,000 mm 3,0 UV-I 863 W/m 11,3 C 31,5 C 0,0 km/h (0 Bft) 0,00 %
28.08.2015 13:46 31,7 C 32 % 1019,0 hPa 0,0 l/m 5,4 km/h (1 Bft) W 266 5 min 0,000 mm 3,0 UV-I 862 W/m 12,9 C 31,7 C 7,9 km/h (2 Bft) 0,00 %
28.08.2015 13:51 31,9 C 32 % 1018,9 hPa 0,0 l/m 0,0 km/h (0 Bft) N-NO 15 5 min 0,000 mm 3,0 UV-I 854 W/m 13,1 C 31,9 C 0,0 km/h (0 Bft) 0,00 %
28.08.2015 13:56 32,1 C 32 % 1019,0 hPa 0,0 l/m 2,2 km/h (1 Bft) W-NW 291 5 min 0,000 mm 3,0 UV-I 867 W/m 13,3 C 32,1 C 4,0 km/h (1 Bft) 0,00 %
28.08.2015 14:01 32,2 C 32 % 1019,2 hPa 0,0 l/m 0,0 km/h (0 Bft) NO 36 5 min 0,000 mm 3,0 UV-I 874 W/m 13,4 C 32,2 C 0,0 km/h (0 Bft) 0,00 %
28.08.2015 14:06 32,3 C 31 % 1019,2 hPa 0,0 l/m 2,2 km/h (1 Bft) W-NW 295 5 min 0,000 mm 3,0 UV-I 876 W/m 13,0 C 32,3 C 4,0 km/h (1 Bft) 0,00 %
28.08.2015 14:11 32,1 C 31 % 1019,1 hPa 0,0 l/m 0,7 km/h (0 Bft) NW 310 5 min 0,000 mm 3,0 UV-I 872 W/m 12,8 C 32,1 C 4,0 km/h (1 Bft) 0,00 %
28.08.2015 14:16 32,1 C 31 % 1019,0 hPa 0,0 l/m 0,0 km/h (0 Bft) NW 326 5 min 0,000 mm 3,0 UV-I 869 W/m 12,8 C 32,1 C 0,0 km/h (0 Bft) 0,00 %
28.08.2015 14:21 32,2 C 31 % 1019,0 hPa 0,0 l/m 0,0 km/h (0 Bft) NW 319 5 min 0,000 mm 3,0 UV-I 876 W/m 12,9 C 32,2 C 0,0 km/h (0 Bft) 0,00 %
28.08.2015 14:26 32,2 C 32 % 1019,0 hPa 0,0 l/m 0,0 km/h (0 Bft) NO 39 5 min 0,000 mm 3,0 UV-I 883 W/m 13,4 C 32,2 C 0,0 km/h (0 Bft) 0,00 %
28.08.2015 14:31 32,1 C 30 % 1018,8 hPa 0,0 l/m 0,0 km/h (0 Bft) NO 55 5 min 0,000 mm 3,0 UV-I 892 W/m 12,3 C 32,1 C 0,0 km/h (0 Bft) 0,00 %
28.08.2015 14:36 32,3 C 29 % 1018,9 hPa 0,0 l/m 0,0 km/h (0 Bft) N-NO 24 5 min 0,000 mm 3,0 UV-I 890 W/m 12,0 C 32,3 C 0,0 km/h (0 Bft) 0,00 %
28.08.2015 14:41 32,6 C 32 % 1019,1 hPa 0,0 l/m 0,0 km/h (0 Bft) N 349 5 min 0,000 mm 3,0 UV-I 877 W/m 13,7 C 32,6 C 0,0 km/h (0 Bft) 0,00 %
28.08.2015 14:46 32,9 C 30 % 1018,8 hPa 0,0 l/m 2,2 km/h (1 Bft) W-NW 288 5 min 0,000 mm 3,0 UV-I 907 W/m 13,0 C 32,9 C 4,0 km/h (1 Bft) 0,00 %
28.08.2015 14:51 33,1 C 28 % 1018,9 hPa 0,0 l/m 0,0 km/h (0 Bft) N 357 5 min 0,000 mm 3,0 UV-I 908 W/m 12,1 C 33,1 C 0,0 km/h (0 Bft) 0,00 %
28.08.2015 14:56 33,4 C 28 % 1019,0 hPa 0,0 l/m 0,0 km/h (0 Bft) NO 54 5 min 0,000 mm 3,0 UV-I 901 W/m 12,4 C 33,4 C 0,0 km/h (0 Bft) 0,00 %
28.08.2015 15:01 33,7 C 28 % 1018,9 hPa 0,0 l/m 0,0 km/h (0 Bft) NO 50 5 min 0,000 mm 3,0 UV-I 916 W/m 12,6 C 33,7 C 0,0 km/h (0 Bft) 0,00 %
28.08.2015 15:06 33,9 C 27 % 1018,8 hPa 0,0 l/m 0,4 km/h (0 Bft) NO 45 5 min 0,000 mm 3,0 UV-I 929 W/m 12,2 C 33,9 C 4,0 km/h (1 Bft) 0,00 %
28.08.2015 15:11 33,8 C 27 % 1018,8 hPa 0,0 l/m 0,0 km/h (0 Bft) NW 314 5 min 0,000 mm 2,0 UV-I 940 W/m 12,2 C 33,8 C 0,0 km/h (0 Bft) 0,00 %
28.08.2015 15:16 33,5 C 28 % 1018,8 hPa 0,0 l/m 1,8 km/h (1 Bft) NO 46 5 min 0,000 mm 1,0 UV-I 984 W/m 12,5 C 33,5 C 4,0 km/h (1 Bft) 0,00 %
28.08.2015 15:21 33,3 C 27 % 1018,9 hPa 0,0 l/m 0,0 km/h (0 Bft) N-NO 29 5 min 0,000 mm 2,0 UV-I 661 W/m 11,7 C 33,3 C 0,0 km/h (0 Bft) 0,00 %
28.08.2015 15:26 33,2 C 28 % 1018,8 hPa 0,0 l/m 0,0 km/h (0 Bft) NO 49 5 min 0,000 mm 2,0 UV-I 701 W/m 12,2 C 33,2 C 0,0 km/h (0 Bft) 0,00 %
28.08.2015 15:31 33,2 C 27 % 1018,7 hPa 0,0 l/m 0,4 km/h (0 Bft) N-NO 29 5 min 0,000 mm 2,0 UV-I 477 W/m 11,6 C 33,2 C 4,0 km/h (1 Bft) 0,00 %
28.08.2015 15:36 33,0 C 29 % 1018,8 hPa 0,0 l/m 0,0 km/h (0 Bft) NO 37 5 min 0,000 mm 2,0 UV-I 440 W/m 12,6 C 33,0 C 0,0 km/h (0 Bft) 0,00 %
28.08.2015 15:41 32,7 C 31 % 1018,5 hPa 0,0 l/m 0,0 km/h (0 Bft) NO 51 5 min 0,000 mm 2,0 UV-I 431 W/m 13,3 C 32,7 C 0,0 km/h (0 Bft) 0,00 %
28.08.2015 15:46 32,5 C 29 % 1018,4 hPa 0,0 l/m 0,0 km/h (0 Bft) O-NO 58 5 min 0,000 mm 2,0 UV-I 456 W/m 12,1 C 32,5 C 0,0 km/h (0 Bft) 0,00 %
28.08.2015 15:51 32,5 C 30 % 1018,6 hPa 0,0 l/m 0,0 km/h (0 Bft) N-NO 23 5 min 0,000 mm 2,0 UV-I 417 W/m 12,7 C 32,5 C 0,0 km/h (0 Bft) 0,00 %
28.08.2015 15:56 32,4 C 30 % 1018,3 hPa 0,0 l/m 0,0 km/h (0 Bft) N 350 5 min 0,000 mm 2,0 UV-I 395 W/m 12,6 C 32,4 C 0,0 km/h (0 Bft) 0,00 %
28.08.2015 16:01 32,4 C 31 % 1018,5 hPa 0,0 l/m 0,0 km/h (0 Bft) NO 49 5 min 0,000 mm 1,0 UV-I 379 W/m 13,1 C 32,4 C 0,0 km/h (0 Bft) 0,00 %
28.08.2015 16:06 32,3 C 32 % 1018,6 hPa 0,0 l/m 0,0 km/h (0 Bft) O-NO 58 5 min 0,000 mm 1,0 UV-I 381 W/m 13,5 C 32,3 C 0,0 km/h (0 Bft) 0,00 %
28.08.2015 16:11 32,3 C 32 % 1018,4 hPa 0,0 l/m 1,4 km/h (1 Bft) N-NW 347 5 min 0,000 mm 1,0 UV-I 386 W/m 13,5 C 32,3 C 4,0 km/h (1 Bft) 0,00 %
28.08.2015 16:16 32,2 C 32 % 1018,6 hPa 0,0 l/m 0,0 km/h (0 Bft) N-NO 26 5 min 0,000 mm 1,0 UV-I 363 W/m 13,4 C 32,2 C 0,0 km/h (0 Bft) 0,00 %
28.08.2015 16:21 32,1 C 30 % 1018,7 hPa 0,0 l/m 0,0 km/h (0 Bft) N 3 5 min 0,000 mm 1,0 UV-I 341 W/m 12,3 C 32,1 C 0,0 km/h (0 Bft) 0,00 %
28.08.2015 16:26 31,9 C 32 % 1018,4 hPa 0,0 l/m 0,7 km/h (0 Bft) W-NW 291 5 min 0,000 mm 1,0 UV-I 348 W/m 13,1 C 31,9 C 4,0 km/h (1 Bft) 0,00 %
28.08.2015 16:31 31,8 C 29 % 1018,4 hPa 0,0 l/m 3,2 km/h (1 Bft) N 349 5 min 0,000 mm 1,0 UV-I 336 W/m 11,5 C 31,8 C 4,0 km/h (1 Bft) 0,00 %
28.08.2015 16:36 31,4 C 30 % 1018,5 hPa 0,0 l/m 0,0 km/h (0 Bft) N-NO 15 5 min 0,000 mm 1,0 UV-I 332 W/m 11,7 C 31,4 C 0,0 km/h (0 Bft) 0,00 %
28.08.2015 16:41 31,0 C 31 % 1018,4 hPa 0,0 l/m 4,0 km/h (1 Bft) W-NW 288 5 min 0,000 mm 1,0 UV-I 337 W/m 11,9 C 31,0 C 4,0 km/h (1 Bft) 0,00 %
28.08.2015 16:46 30,8 C 31 % 1018,5 hPa 0,0 l/m 0,4 km/h (0 Bft) N-NO 14 5 min 0,000 mm 1,0 UV-I 334 W/m 11,7 C 30,8 C 4,0 km/h (1 Bft) 0,00 %
28.08.2015 16:51 30,7 C 31 % 1018,6 hPa 0,0 l/m 1,8 km/h (1 Bft) NO 49 5 min 0,000 mm 1,0 UV-I 319 W/m 11,6 C 30,7 C 4,0 km/h (1 Bft) 0,00 %
28.08.2015 16:56 30,7 C 31 % 1018,5 hPa 0,0 l/m 0,0 km/h (0 Bft) NO 40 5 min 0,000 mm 1,0 UV-I 310 W/m 11,6 C 30,7 C 0,0 km/h (0 Bft) 0,00 %
28.08.2015 17:01 30,7 C 31 % 1018,6 hPa 0,0 l/m 0,0 km/h (0 Bft) N-NO 17 5 min 0,000 mm 1,0 UV-I 286 W/m 11,6 C 30,7 C 0,0 km/h (0 Bft) 0,00 %
28.08.2015 17:06 30,8 C 30 % 1018,6 hPa 0,0 l/m 0,0 km/h (0 Bft) N-NO 27 5 min 0,000 mm 1,0 UV-I 278 W/m 11,2 C 30,8 C 0,0 km/h (0 Bft) 0,00 %
28.08.2015 17:11 31,0 C 31 % 1018,4 hPa 0,0 l/m 0,0 km/h (0 Bft) N 2 5 min 0,000 mm 1,0 UV-I 742 W/m 11,9 C 31,0 C 0,0 km/h (0 Bft) 0,00 %
28.08.2015 17:16 31,2 C 29 % 1018,5 hPa 0,0 l/m 0,0 km/h (0 Bft) N 1 5 min 0,000 mm 1,0 UV-I 766 W/m 11,0 C 31,2 C 0,0 km/h (0 Bft) 0,00 %
28.08.2015 17:21 31,6 C 32 % 1018,4 hPa 0,0 l/m 0,4 km/h (0 Bft) NO 45 5 min 0,000 mm 1,0 UV-I 764 W/m 12,9 C 31,6 C 4,0 km/h (1 Bft) 0,00 %
28.08.2015 17:26 32,0 C 31 % 1018,2 hPa 0,0 l/m 1,4 km/h (1 Bft) N-NO 20 5 min 0,000 mm 1,0 UV-I 652 W/m 12,7 C 32,0 C 4,0 km/h (1 Bft) 0,00 %
28.08.2015 17:31 32,2 C 31 % 1018,4 hPa 0,0 l/m 2,9 km/h (1 Bft) W 281 5 min 0,000 mm 1,0 UV-I 673 W/m 12,9 C 32,2 C 4,0 km/h (1 Bft) 0,00 %
28.08.2015 17:36 32,2 C 28 % 1018,6 hPa 0,0 l/m 0,0 km/h (0 Bft) N 352 5 min 0,000 mm 1,0 UV-I 571 W/m 11,3 C 32,2 C 0,0 km/h (0 Bft) 0,00 %
28.08.2015 17:41 32,2 C 30 % 1018,5 hPa 0,0 l/m 0,0 km/h (0 Bft) O-NO 61 5 min 0,000 mm 1,0 UV-I 584 W/m 12,4 C 32,2 C 0,0 km/h (0 Bft) 0,00 %
28.08.2015 17:46 32,2 C 29 % 1018,5 hPa 0,0 l/m 0,0 km/h (0 Bft) NO 46 5 min 0,000 mm 1,0 UV-I 678 W/m 11,9 C 32,2 C 0,0 km/h (0 Bft) 0,00 %
28.08.2015 17:51 32,3 C 30 % 1018,2 hPa 0,0 l/m 0,0 km/h (0 Bft) N-NO 31 5 min 0,000 mm 1,0 UV-I 697 W/m 12,5 C 32,3 C 0,0 km/h (0 Bft) 0,00 %
28.08.2015 17:56 32,5 C 29 % 1018,3 hPa 0,0 l/m 0,0 km/h (0 Bft) NO 45 5 min 0,000 mm 1,0 UV-I 716 W/m 12,1 C 32,5 C 0,0 km/h (0 Bft) 0,00 %
28.08.2015 18:01 32,6 C 29 % 1018,2 hPa 0,0 l/m 0,0 km/h (0 Bft) N-NO 21 5 min 0,000 mm 1,0 UV-I 602 W/m 12,2 C 32,6 C 0,0 km/h (0 Bft) 0,00 %
28.08.2015 18:06 32,6 C 28 % 1018,6 hPa 0,0 l/m 0,0 km/h (0 Bft) O-NO 60 5 min 0,000 mm 1,0 UV-I 236 W/m 11,7 C 32,6 C 0,0 km/h (0 Bft) 0,00 %
28.08.2015 18:11 32,6 C 29 % 1018,5 hPa 0,0 l/m 0,0 km/h (0 Bft) NO 52 5 min 0,000 mm 1,0 UV-I 185 W/m 12,2 C 32,6 C 0,0 km/h (0 Bft) 0,00 %
28.08.2015 18:16 32,3 C 28 % 1018,7 hPa 0,0 l/m 0,0 km/h (0 Bft) NO 55 5 min 0,000 mm 1,0 UV-I 273 W/m 11,4 C 32,3 C 0,0 km/h (0 Bft) 0,00 %
28.08.2015 18:21 31,9 C 29 % 1018,5 hPa 0,0 l/m 0,0 km/h (0 Bft) NO 40 5 min 0,000 mm 1,0 UV-I 180 W/m 11,6 C 31,9 C 0,0 km/h (0 Bft) 0,00 %
28.08.2015 18:26 31,6 C 29 % 1018,7 hPa 0,0 l/m 0,0 km/h (0 Bft) N-NO 23 5 min 0,000 mm 1,0 UV-I 205 W/m 11,4 C 31,6 C 0,0 km/h (0 Bft) 0,00 %
28.08.2015 18:31 31,4 C 30 % 1018,5 hPa 0,0 l/m 0,0 km/h (0 Bft) N-NO 31 5 min 0,000 mm 1,0 UV-I 233 W/m 11,7 C 31,4 C 0,0 km/h (0 Bft) 0,00 %
28.08.2015 18:36 31,2 C 29 % 1018,7 hPa 0,0 l/m 0,0 km/h (0 Bft) O-SO 112 5 min 0,000 mm 1,0 UV-I 484 W/m 11,0 C 31,2 C 0,0 km/h (0 Bft) 0,00 %
28.08.2015 18:41 31,0 C 30 % 1018,5 hPa 0,0 l/m 0,0 km/h (0 Bft) NO 47 5 min 0,000 mm 0,0 UV-I 214 W/m 11,4 C 31,0 C 0,0 km/h (0 Bft) 0,00 %
28.08.2015 18:47 30,9 C 30 % 1018,5 hPa 0,0 l/m 0,0 km/h (0 Bft) NO 50 6 min 0,000 mm 0,0 UV-I 432 W/m 11,3 C 30,9 C 0,0 km/h (0 Bft) 0,00 %
28.08.2015 18:52 30,8 C 31 % 1018,7 hPa 0,0 l/m 0,0 km/h (0 Bft) NO 48 5 min 0,000 mm 0,0 UV-I 432 W/m 11,7 C 30,8 C 0,0 km/h (0 Bft) 0,00 %
28.08.2015 18:57 30,9 C 29 % 1018,6 hPa 0,0 l/m 0,0 km/h (0 Bft) NO 48 5 min 0,000 mm 0,0 UV-I 254 W/m 10,8 C 30,9 C 0,0 km/h (0 Bft) 0,00 %
28.08.2015 19:02 31,0 C 29 % 1018,6 hPa 0,0 l/m 0,0 km/h (0 Bft) O-NO 65 5 min 0,000 mm 0,0 UV-I 136 W/m 10,9 C 31,0 C 0,0 km/h (0 Bft) 0,00 %
28.08.2015 19:07 31,0 C 30 % 1018,7 hPa 0,0 l/m 0,0 km/h (0 Bft) O-NO 57 5 min 0,000 mm 0,0 UV-I 111 W/m 11,4 C 31,0 C 0,0 km/h (0 Bft) 0,00 %
28.08.2015 19:12 30,8 C 30 % 1018,7 hPa 0,0 l/m 0,0 km/h (0 Bft) NO 44 5 min 0,000 mm 0,0 UV-I 198 W/m 11,2 C 30,8 C 0,0 km/h (0 Bft) 0,00 %
28.08.2015 19:17 30,6 C 30 % 1018,7 hPa 0,0 l/m 0,0 km/h (0 Bft) NO 44 5 min 0,000 mm 0,0 UV-I 214 W/m 11,0 C 30,6 C 0,0 km/h (0 Bft) 0,00 %
28.08.2015 19:22 30,3 C 32 % 1018,6 hPa 0,0 l/m 0,0 km/h (0 Bft) O-NO 58 5 min 0,000 mm 0,0 UV-I 89 W/m 11,7 C 30,3 C 0,0 km/h (0 Bft) 0,00 %
28.08.2015 19:27 30,1 C 37 % 1018,9 hPa 0,0 l/m 0,0 km/h (0 Bft) O-NO 72 5 min 0,000 mm 0,0 UV-I 63 W/m 13,8 C 30,1 C 0,0 km/h (0 Bft) 0,00 %
28.08.2015 19:32 29,8 C 38 % 1018,7 hPa 0,0 l/m 0,0 km/h (0 Bft) O 84 5 min 0,000 mm 0,0 UV-I 47 W/m 13,9 C 29,8 C 0,0 km/h (0 Bft) 0,00 %
28.08.2015 19:37 29,3 C 39 % 1018,8 hPa 0,0 l/m 0,0 km/h (0 Bft) NO 50 5 min 0,000 mm 0,0 UV-I 35 W/m 13,9 C 29,3 C 0,0 km/h (0 Bft) 0,00 %
28.08.2015 19:42 28,7 C 38 % 1018,8 hPa 0,0 l/m 0,0 km/h (0 Bft) O 88 5 min 0,000 mm 0,0 UV-I 24 W/m 13,0 C 28,7 C 0,0 km/h (0 Bft) 0,00 %
28.08.2015 19:47 28,2 C 40 % 1018,8 hPa 0,0 l/m 0,4 km/h (0 Bft) NO 53 0 min 0,000 mm 0,0 UV-I 11 W/m 13,3 C 28,2 C 4,0 km/h (1 Bft) 0,00 %
28.08.2015 19:52 27,7 C 42 % 1018,9 hPa 0,0 l/m 0,0 km/h (0 Bft) O-NO 76 0 min 0,000 mm 0,0 UV-I 5 W/m 13,6 C 27,7 C 0,0 km/h (0 Bft) 0,00 %
28.08.2015 19:57 27,2 C 41 % 1018,9 hPa 0,0 l/m 0,0 km/h (0 Bft) NO 54 0 min 0,000 mm 0,0 UV-I 2 W/m 12,8 C 27,2 C 0,0 km/h (0 Bft) 0,00 %
28.08.2015 20:02 26,7 C 42 % 1019,0 hPa 0,0 l/m 0,0 km/h (0 Bft) NO 42 0 min 0,000 mm 0,0 UV-I 0 W/m 12,7 C 26,7 C 0,0 km/h (0 Bft) 0,00 %
28.08.2015 20:07 26,3 C 43 % 1018,8 hPa 0,0 l/m 0,0 km/h (0 Bft) NO 46 0 min 0,000 mm 0,0 UV-I 0 W/m 12,7 C 26,3 C 0,0 km/h (0 Bft) 0,00 %
28.08.2015 20:12 25,9 C 46 % 1019,0 hPa 0,0 l/m 0,0 km/h (0 Bft) NO 49 0 min 0,000 mm 0,0 UV-I 0 W/m 13,4 C 25,9 C 0,0 km/h (0 Bft) 0,00 %
28.08.2015 20:17 25,4 C 46 % 1019,1 hPa 0,0 l/m 0,0 km/h (0 Bft) O-NO 57 0 min 0,000 mm 0,0 UV-I 0 W/m 12,9 C 25,4 C 0,0 km/h (0 Bft) 0,00 %
28.08.2015 20:22 25,1 C 49 % 1019,2 hPa 0,0 l/m 0,0 km/h (0 Bft) NO 46 0 min 0,000 mm 0,0 UV-I 0 W/m 13,6 C 25,1 C 0,0 km/h (0 Bft) 0,00 %
28.08.2015 20:27 24,9 C 48 % 1019,3 hPa 0,0 l/m 0,0 km/h (0 Bft) NO 52 0 min 0,000 mm 0,0 UV-I 0 W/m 13,1 C 24,9 C 0,0 km/h (0 Bft) 0,00 %
28.08.2015 20:32 24,5 C 49 % 1019,5 hPa 0,0 l/m 0,0 km/h (0 Bft) O-NO 61 0 min 0,000 mm 0,0 UV-I 0 W/m 13,1 C 24,5 C 0,0 km/h (0 Bft) 0,00 %
28.08.2015 20:37 24,3 C 49 % 1019,3 hPa 0,0 l/m 0,0 km/h (0 Bft) O-NO 57 0 min 0,000 mm 0,0 UV-I 0 W/m 12,9 C 24,3 C 0,0 km/h (0 Bft) 0,00 %
28.08.2015 20:42 24,2 C 49 % 1019,2 hPa 0,0 l/m 0,0 km/h (0 Bft) NO 50 0 min 0,000 mm 0,0 UV-I 0 W/m 12,8 C 24,2 C 0,0 km/h (0 Bft) 0,00 %
28.08.2015 20:47 24,0 C 51 % 1019,5 hPa 0,0 l/m 0,0 km/h (0 Bft) NO 49 0 min 0,000 mm 0,0 UV-I 0 W/m 13,2 C 24,0 C 0,0 km/h (0 Bft) 0,00 %
28.08.2015 20:52 23,8 C 52 % 1019,4 hPa 0,0 l/m 0,0 km/h (0 Bft) NO 49 0 min 0,000 mm 0,0 UV-I 0 W/m 13,3 C 23,8 C 0,0 km/h (0 Bft) 0,00 %
28.08.2015 20:57 23,4 C 52 % 1019,4 hPa 0,0 l/m 0,0 km/h (0 Bft) NO 49 0 min 0,000 mm 0,0 UV-I 0 W/m 13,0 C 23,4 C 0,0 km/h (0 Bft) 0,00 %
28.08.2015 21:02 23,2 C 54 % 1019,6 hPa 0,0 l/m 0,0 km/h (0 Bft) NO 51 0 min 0,000 mm 0,0 UV-I 0 W/m 13,4 C 23,2 C 0,0 km/h (0 Bft) 0,00 %
28.08.2015 21:07 23,0 C 55 % 1019,8 hPa 0,0 l/m 0,0 km/h (0 Bft) N 353 0 min 0,000 mm 0,0 UV-I 0 W/m 13,5 C 23,0 C 0,0 km/h (0 Bft) 0,00 %
28.08.2015 21:12 22,8 C 56 % 1019,9 hPa 0,0 l/m 0,0 km/h (0 Bft) NO 47 0 min 0,000 mm 0,0 UV-I 0 W/m 13,6 C 22,8 C 0,0 km/h (0 Bft) 0,00 %
28.08.2015 21:17 22,6 C 57 % 1019,8 hPa 0,0 l/m 0,0 km/h (0 Bft) O-NO 65 0 min 0,000 mm 0,0 UV-I 0 W/m 13,6 C 22,6 C 0,0 km/h (0 Bft) 0,00 %
28.08.2015 21:22 22,3 C 57 % 1019,8 hPa 0,0 l/m 0,0 km/h (0 Bft) N-NO 32 0 min 0,000 mm 0,0 UV-I 0 W/m 13,4 C 22,3 C 0,0 km/h (0 Bft) 0,00 %
28.08.2015 21:27 22,1 C 58 % 1019,8 hPa 0,0 l/m 0,0 km/h (0 Bft) NO 48 0 min 0,000 mm 0,0 UV-I 0 W/m 13,4 C 22,1 C 0,0 km/h (0 Bft) 0,00 %
28.08.2015 21:32 22,0 C 59 % 1019,9 hPa 0,0 l/m 0,0 km/h (0 Bft) NO 45 0 min 0,000 mm 0,0 UV-I 0 W/m 13,6 C 22,0 C 0,0 km/h (0 Bft) 0,00 %
28.08.2015 21:37 21,7 C 59 % 1020,0 hPa 0,0 l/m 0,0 km/h (0 Bft) NO 46 0 min 0,000 mm 0,0 UV-I 0 W/m 13,3 C 21,7 C 0,0 km/h (0 Bft) 0,00 %
28.08.2015 21:42 21,5 C 60 % 1020,0 hPa 0,0 l/m 0,0 km/h (0 Bft) NO 44 0 min 0,000 mm 0,0 UV-I 0 W/m 13,4 C 21,5 C 0,0 km/h (0 Bft) 0,00 %
28.08.2015 21:47 21,4 C 60 % 1019,8 hPa 0,0 l/m 0,0 km/h (0 Bft) NO 48 0 min 0,000 mm 0,0 UV-I 0 W/m 13,3 C 21,4 C 0,0 km/h (0 Bft) 0,00 %
28.08.2015 21:52 21,3 C 60 % 1020,0 hPa 0,0 l/m 0,0 km/h (0 Bft) NO 51 0 min 0,000 mm 0,0 UV-I 0 W/m 13,2 C 21,3 C 0,0 km/h (0 Bft) 0,00 %
28.08.2015 21:57 21,1 C 61 % 1020,1 hPa 0,0 l/m 0,0 km/h (0 Bft) NO 46 0 min 0,000 mm 0,0 UV-I 0 W/m 13,3 C 21,1 C 0,0 km/h (0 Bft) 0,00 %
28.08.2015 22:02 21,0 C 61 % 1020,1 hPa 0,0 l/m 0,0 km/h (0 Bft) NO 46 0 min 0,000 mm 0,0 UV-I 0 W/m 13,2 C 21,0 C 0,0 km/h (0 Bft) 0,00 %
28.08.2015 22:07 20,9 C 62 % 1020,2 hPa 0,0 l/m 0,0 km/h (0 Bft) NO 49 0 min 0,000 mm 0,0 UV-I 0 W/m 13,3 C 20,9 C 0,0 km/h (0 Bft) 0,00 %
28.08.2015 22:12 20,9 C 62 % 1020,2 hPa 0,0 l/m 0,0 km/h (0 Bft) NO 46 0 min 0,000 mm 0,0 UV-I 0 W/m 13,3 C 20,9 C 0,0 km/h (0 Bft) 0,00 %
28.08.2015 22:17 20,9 C 62 % 1020,3 hPa 0,0 l/m 0,0 km/h (0 Bft) NO 49 0 min 0,000 mm 0,0 UV-I 0 W/m 13,3 C 20,9 C 0,0 km/h (0 Bft) 0,00 %
28.08.2015 22:22 20,8 C 63 % 1020,2 hPa 0,0 l/m 0,0 km/h (0 Bft) NO 51 0 min 0,000 mm 0,0 UV-I 0 W/m 13,5 C 20,8 C 0,0 km/h (0 Bft) 0,00 %
28.08.2015 22:27 20,6 C 63 % 1020,2 hPa 0,0 l/m 0,0 km/h (0 Bft) NO 51 0 min 0,000 mm 0,0 UV-I 0 W/m 13,3 C 20,6 C 0,0 km/h (0 Bft) 0,00 %
28.08.2015 22:32 20,5 C 64 % 1020,1 hPa 0,0 l/m 0,0 km/h (0 Bft) NO 50 0 min 0,000 mm 0,0 UV-I 0 W/m 13,5 C 20,5 C 0,0 km/h (0 Bft) 0,00 %
28.08.2015 22:37 20,3 C 64 % 1020,1 hPa 0,0 l/m 0,0 km/h (0 Bft) NO 51 0 min 0,000 mm 0,0 UV-I 0 W/m 13,3 C 20,3 C 0,0 km/h (0 Bft) 0,00 %
28.08.2015 22:42 20,2 C 65 % 1020,2 hPa 0,0 l/m 0,0 km/h (0 Bft) NO 48 0 min 0,000 mm 0,0 UV-I 0 W/m 13,4 C 20,2 C 0,0 km/h (0 Bft) 0,00 %
28.08.2015 22:47 20,1 C 65 % 1020,2 hPa 0,0 l/m 0,0 km/h (0 Bft) NO 49 0 min 0,000 mm 0,0 UV-I 0 W/m 13,3 C 20,1 C 0,0 km/h (0 Bft) 0,00 %
28.08.2015 22:52 20,0 C 66 % 1020,4 hPa 0,0 l/m 0,0 km/h (0 Bft) NO 48 0 min 0,000 mm 0,0 UV-I 0 W/m 13,4 C 20,0 C 0,0 km/h (0 Bft) 0,00 %
28.08.2015 22:57 20,0 C 67 % 1020,4 hPa 0,0 l/m 0,0 km/h (0 Bft) NO 48 0 min 0,000 mm 0,0 UV-I 0 W/m 13,7 C 20,0 C 0,0 km/h (0 Bft) 0,00 %
28.08.2015 23:02 19,8 C 67 % 1020,3 hPa 0,0 l/m 0,0 km/h (0 Bft) NO 48 0 min 0,000 mm 0,0 UV-I 0 W/m 13,5 C 19,8 C 0,0 km/h (0 Bft) 0,00 %
28.08.2015 23:07 19,8 C 68 % 1020,3 hPa 0,0 l/m 0,0 km/h (0 Bft) NO 47 0 min 0,000 mm 0,0 UV-I 0 W/m 13,7 C 19,8 C 0,0 km/h (0 Bft) 0,00 %
28.08.2015 23:12 19,8 C 66 % 1020,5 hPa 0,0 l/m 0,0 km/h (0 Bft) NO 48 0 min 0,000 mm 0,0 UV-I 0 W/m 13,3 C 19,8 C 0,0 km/h (0 Bft) 0,00 %
28.08.2015 23:17 19,9 C 65 % 1020,3 hPa 0,0 l/m 0,0 km/h (0 Bft) NO 45 0 min 0,000 mm 0,0 UV-I 0 W/m 13,1 C 19,9 C 0,0 km/h (0 Bft) 0,00 %
28.08.2015 23:22 20,1 C 65 % 1020,5 hPa 0,0 l/m 0,0 km/h (0 Bft) N 354 0 min 0,000 mm 0,0 UV-I 0 W/m 13,3 C 20,1 C 0,0 km/h (0 Bft) 0,00 %
28.08.2015 23:27 20,2 C 65 % 1020,4 hPa 0,0 l/m 0,0 km/h (0 Bft) N 359 0 min 0,000 mm 0,0 UV-I 0 W/m 13,4 C 20,2 C 0,0 km/h (0 Bft) 0,00 %
28.08.2015 23:32 20,2 C 65 % 1020,4 hPa 0,0 l/m 0,0 km/h (0 Bft) NO 50 0 min 0,000 mm 0,0 UV-I 0 W/m 13,4 C 20,2 C 0,0 km/h (0 Bft) 0,00 %
28.08.2015 23:37 20,1 C 66 % 1020,5 hPa 0,0 l/m 0,0 km/h (0 Bft) NO 45 0 min 0,000 mm 0,0 UV-I 0 W/m 13,5 C 20,1 C 0,0 km/h (0 Bft) 0,00 %
28.08.2015 23:42 19,9 C 68 % 1020,5 hPa 0,0 l/m 0,0 km/h (0 Bft) NO 51 0 min 0,000 mm 0,0 UV-I 0 W/m 13,8 C 19,9 C 0,0 km/h (0 Bft) 0,00 %
28.08.2015 23:47 19,8 C 68 % 1020,6 hPa 0,0 l/m 0,0 km/h (0 Bft) NO 49 0 min 0,000 mm 0,0 UV-I 0 W/m 13,7 C 19,8 C 0,0 km/h (0 Bft) 0,00 %
28.08.2015 23:52 19,7 C 68 % 1020,6 hPa 0,0 l/m 0,0 km/h (0 Bft) NO 48 0 min 0,000 mm 0,0 UV-I 0 W/m 13,6 C 19,7 C 0,0 km/h (0 Bft) 0,00 %
28.08.2015 23:57 19,6 C 68 % 1020,7 hPa 0,0 l/m 0,0 km/h (0 Bft) NO 47 0 min 0,000 mm 0,0 UV-I 0 W/m 13,5 C 19,6 C 0,0 km/h (0 Bft) 0,00 %
_ Min-Zeit 06:21 15:06 00:50 - 00:00 - - - - - - 18:57 06:21 00:00 00:00
Minimum _ 12,0 C 27 % 1013,4 hPa - 0,0 km/h (0 Bft) - - - - - - 10,8 C 12,0 C 0,0 km/h (0 Bft) 0,00 %
_ Max-Zeit 15:06 05:06 23:57 00:00 09:46 - - 18:47 00:00 12:56 15:16 19:32 15:06 09:41 00:00
Maximum _ 33,9 C 96 % 1020,7 hPa 0,0 l/m 7,2 km/h
W-SW (2 Bft)
- - 6 min 0,000 mm 4,0 UV-I 984 W/m 13,9 C 33,9 C 11,9 km/h
W-SW (2 Bft)
0,00 %
Durchschnitt _ 23,1 C 58 % 1017,7 hPa #0,0 l/m 0,4 km/h (0 Bft) W-NW - #11:31 h #0,000 mm 2,0 UV-I 455 W/m 12,5 C 23,1 C 0,9 km/h (0 Bft) 0,00 %